This demonstration page uses our WeatherBlox Daily Observations layout. Learn more.

Left ArrowRight Arrow

Hourly Observations for May 25, 2015

Temp ( °F °C ) Dew Point ( °F °C ) Humidity (%) Winds ( mph kmh ) Pressure ( in mb ) Visibility ( mi km ) Precip ( " mm )
12:16 am 00:16 Mostly Cloudy 61 16 59 15 94 94 S 8 13 29.77 1008 10 16 0.00 0.00
12:38 am 00:38 Partly Cloudy 61 16 59 15 94 94 S 7 11 29.77 1008 10 16 0.00 0.00
12:53 am 00:53 Partly Cloudy 60 15.6 59 15 96 96 S 7 11 29.77 1008 10 16 0.00 0.00
1:17 am 01:17 Mostly Cloudy 61 16.1 59 15 93 93 SSW 5 7 29.77 1008 10 16 0.00 0.00
1:53 am 01:53 Mostly Cloudy 60 15.6 59 15 96 96 SSW 3 6 29.75 1008 9 14 0.00 0.00
2:01 am 02:01 Mostly Cloudy 60 15.6 59 15 96 96 SSW 5 7 29.71 1006 9 14 0.00 0.00
2:33 am 02:33 Cloudy with Light Rain 61 16.1 59 15 93 93 SW 10 17 29.71 1006 10 16 0.00 0.03
2:53 am 02:53 Mostly Clear 61 16.1 57 13.9 87 87 WSW 6 9 29.72 1007 10 16 0.00 0.03
3:53 am 03:53 Mostly Clear 58 14.4 56 13.3 93 93 W 6 9 29.70 1006 10 16 0.00 0.00
4:53 am 04:53 Clear 58 14.4 55 12.8 90 90 SW 6 9 29.73 1007 10 16 0.00 0.00
5:53 am 05:53 Clear 56 13.3 52 11.1 87 87 S 6 9 29.74 1007 10 16 0.00 0.00
6:53 am 06:53 Cloudy 56 13.3 52 11.1 87 87 WSW 9 15 29.78 1008 10 16 0.00 0.00
7:53 am 07:53 Sunny 56 13.3 52 11.1 87 87 WSW 7 11 29.78 1009 10 16 0.00 0.00
8:53 am 08:53 Sunny 60 15.6 53 11.7 78 78 W 9 15 29.78 1009 10 16 0.00 0.00
9:53 am 09:53 Sunny 66 18.9 53 11.7 63 63 SW 6 9 29.78 1008 10 16 0.00 0.00
10:53 am 10:53 Mostly Cloudy 66 18.9 53 11.7 63 63 S 9 15 29.77 1008 10 16 0.00 0.00
11:53 am 11:53 Cloudy 67 19.4 53 11.7 61 61 S 8 13 29.77 1008 10 16 0.00 0.00
12:53 pm 12:53 Cloudy 68 20 55 12.8 63 63 S 14 22 29.78 1009 10 16 0.00 0.00
1:53 pm 13:53 Mostly Cloudy 70 21.1 58 14.4 66 66 SSW 13 20 29.78 1008 10 16 0.00 0.00
2:53 pm 14:53 Mostly Cloudy 72 22.2 57 13.9 59 59 SW 14 22 29.76 1008 10 16 0.00 0.00
3:53 pm 15:53 Mostly Cloudy 74 23.3 56 13.3 54 54 SW 12 19 29.76 1008 10 16 0.00 0.00
4:53 pm 16:53 Sunny 75 23.9 56 13.3 52 52 SW 7 11 29.73 1007 10 16 0.00 0.00
5:53 pm 17:53 Mostly Sunny 74 23.3 54 12.2 50 50 VRB 3 6 29.71 1006 10 16 0.00 0.00
6:53 pm 18:53 Mostly Cloudy 74 23.3 55 12.8 52 52 S 5 7 29.73 1007 10 16 0.00 0.00
7:23 pm 19:23 Partly Cloudy with Nearby Thunderstorms 73 22.8 57 13.9 57 57 SSE 9 15 29.65 1004 10 16 0.00 0.00
7:53 pm 19:53 Partly Cloudy with Nearby Thunderstorms 69 20.6 58 14.4 68 68 SSE 12 19 29.72 1007 10 16 0.00 0.00
8:01 pm 20:01 Mostly Sunny 68 20 56 13.3 65 65 SSE 10 17 29.65 1004 10 16 0.00 0.00
8:53 pm 20:53 Mostly Cloudy with Light Rain 67 19.4 60 15.6 79 79 S 9 15 29.73 1007 9 14 0.00 0.03
9:53 pm 21:53 Clear 64 17.8 58 14.4 81 81 S 5 7 29.74 1007 10 16 0.02 0.51
10:53 pm 22:53 Clear 63 17.2 57 13.9 81 81 S 5 7 29.76 1008 10 16 0.00 0.00
11:53 pm 23:53 Clear 61 16.1 57 13.9 87 87 VRB 5 7 29.75 1008 10 16 0.00 0.00

Powered by AerisWeather